This is the latest recevied weather packets stored in our database for station/object KN4MGS. If no packets are shown the sender has not sent any weather packets the latest 10 day(s).
| Time | Temp. | Humidity | Pressure | Rain* | Wind** | Luminosity | Snow |
|---|---|---|---|---|---|---|---|
| 1777846031 | 22.22° C | 36% | 1019.6 hPa | 0 mm | - | 281 W/m² | - |
| 1777845728 | 22.22° C | 35% | 1019.4 hPa | 0 mm | - | 282 W/m² | - |
| 1777845425 | 21.67° C | 35% | 1019.6 hPa | 0 mm | - | 327 W/m² | - |
| 1777845122 | 21.67° C | 35% | 1019.3 hPa | 0 mm | - | 333 W/m² | - |
| 1777844820 | 21.67° C | 34% | 1019.6 hPa | 0 mm | - | 345 W/m² | - |
| 1777844516 | 21.67° C | 36% | 1019.9 hPa | 0 mm | - | 363 W/m² | - |
| 1777844215 | 21.67° C | 36% | 1019.7 hPa | 0 mm | - | 398 W/m² | - |
| 1777843912 | 21.67° C | 36% | 1019.6 hPa | 0 mm | - | 379 W/m² | - |
| 1777843609 | 21.67° C | 38% | 1020 hPa | 0 mm | - | 414 W/m² | - |
| 1777843306 | 21.11° C | 38% | 1019.7 hPa | 0 mm | - | 393 W/m² | - |
| 1777843004 | 21.67° C | 35% | 1019.7 hPa | 0 mm | - | 424 W/m² | - |
| 1777842699 | 21.67° C | 36% | 1020.1 hPa | 0 mm | - | 416 W/m² | - |
| 1777842396 | 21.67° C | 38% | 1020.2 hPa | 0 mm | - | 444 W/m² | - |
| 1777842093 | 21.67° C | 35% | 1020.2 hPa | 0 mm | - | 467 W/m² | - |
| 1777841788 | 22.78° C | 35% | 1019.9 hPa | 0 mm | - | 460 W/m² | - |
| 1777841485 | 22.22° C | 36% | 1020.3 hPa | 0 mm | - | 482 W/m² | - |
| 1777841182 | 21.67° C | 37% | 1020.4 hPa | 0 mm | - | 494 W/m² | - |
| 1777840879 | 21.11° C | 37% | 1020.3 hPa | 0 mm | - | 501 W/m² | - |
| 1777840576 | 22.22° C | 36% | 1020.6 hPa | 0 mm | - | 537 W/m² | - |
| 1777840273 | 21.11° C | 34% | 1020.4 hPa | 0 mm | - | 562 W/m² | - |
| 1777839971 | 21.11° C | 35% | 1020.5 hPa | 0 mm | - | 458 W/m² | - |
| 1777839669 | 21.67° C | 36% | 1020.6 hPa | 0 mm | - | 523 W/m² | - |
| 1777839366 | 21.67° C | 35% | 1020.8 hPa | 0 mm | - | 542 W/m² | - |
| 1777839064 | 21.67° C | 35% | 1020.8 hPa | 0 mm | - | 600 W/m² | - |
| 1777838760 | 21.67° C | 37% | 1021.1 hPa | 0 mm | - | 601 W/m² | - |
* Rain latest hour (hover to see other rain measurements)
** Current wind speed in m/s (hover to see current wind gust speed)